Phnom Penh, Cambodia

3:52 AM +07 on October 19, 2017 (GMT +0700)
Pochentong International

Weather History for VDPP - September, 2013

Change the Weather History Date:

Wednesday, September 11, 2013

  Actual Average Record
Temperature  
Mean Temperature 82 °F -  
Max Temperature 89 °F 85 °F 93 °F (1999)
Min Temperature 75 °F 76 °F 75 °F (2004)
Cooling Degree Days 17    
Growing Degree Days 32 (Base 50)    
Moisture  
Dew Point 73 °F    
Average Humidity 75    
Maximum Humidity 93    
Minimum Humidity 55    
Precipitation  
Precipitation 0.00 in - - ()
Sea Level Pressure  
Sea Level Pressure 29.71 in    
Wind  
Wind Speed 5 mph ()    
Max Wind Speed 23 mph    
Max Gust Speed -    
Visibility 5.9 miles    
Events Rain , Thunderstorm    
Averages and records for this station are not official NWS values.
T = Trace of Precipitation, MM = Missing Value Source: Averaged Metar Reports

Daily Weather History Graph

Daily Weather History Graph

Search for Another Location

Airport or City:

Trip Planner

Search our weather history database for the weather conditions in past years. The results will help you decide how hot, cold, wet, or windy it might be!

Date:

Astronomy

Sep. 11, 2013 Rise Set
Actual Time 5:50 AM +07 6:04 PM +07
Civil Twilight 5:29 AM +07 6:25 PM +07
Nautical Twilight 5:04 AM +07 6:50 PM +07
Astronomical Twilight 4:39 AM +07 7:14 PM +07
Moon 10:41 AM +07 (9/11) 10:35 PM +07 (9/11)
Length of Visible Light 12h 56m
Length of Day
12h 13m
Waxing Crescent, 33% of the Moon is Illuminated
Sep 11
Waxing Crescent
Sep 13
First Quarter
Sep 19
Full
Sep 27
Last Quarter
Oct 5
New

Hourly Weather History & Observations

Time (+07) Temp. Heat Index Dew Point Humidity Pressure Visibility Wind Dir Wind Speed Gust Speed Precip Events Conditions
12:00 AM 77.0 °F - 73.4 °F 89% 29.71 in 5.6 mi WSW 1.2 mph - N/A   Mostly Cloudy
12:30 AM 77.0 °F - 73.4 °F 89% 29.71 in 5.6 mi NW 1.2 mph - N/A   Mostly Cloudy
6:00 AM 78.8 °F - 75.2 °F 89% 29.68 in 6.2 mi North 2.3 mph - N/A   Scattered Clouds
7:00 AM 78 °F - 76 °F 93% 29.75 in 6 mi Calm Calm - -   Partly Cloudy
7:00 AM 78.8 °F - 75.2 °F 89% 29.71 in 6.2 mi West 2.3 mph - N/A   Scattered Clouds
7:30 AM 80.6 °F 86.2 °F 75.2 °F 84% 29.71 in 6.2 mi SW 1.2 mph - N/A   Scattered Clouds
8:00 AM 80.6 °F 85.4 °F 73.4 °F 79% 29.71 in 6.2 mi WNW 2.3 mph - N/A   Scattered Clouds
8:30 AM 82.4 °F 88.2 °F 73.4 °F 74% 29.74 in 6.2 mi WSW 3.5 mph - N/A   Partly Cloudy
9:00 AM 84.2 °F 90.9 °F 73.4 °F 70% 29.74 in 6.2 mi South 3.5 mph - N/A   Partly Cloudy
9:30 AM 84.2 °F 90.9 °F 73.4 °F 70% 29.74 in 6.2 mi SSW 2.3 mph - N/A   Partly Cloudy
10:00 AM 86.0 °F 91.8 °F 71.6 °F 62% 29.74 in 6.2 mi SSW 4.6 mph - N/A   Partly Cloudy
10:30 AM 86.0 °F 91.8 °F 71.6 °F 62% 29.74 in 6.2 mi WNW 6.9 mph - N/A   Partly Cloudy
11:30 AM 87.8 °F 93.8 °F 71.6 °F 58% 29.74 in 6.2 mi WNW 6.9 mph - N/A   Partly Cloudy
12:00 PM 87.8 °F 93.8 °F 71.6 °F 58% 29.71 in 6.2 mi NNW 4.6 mph - N/A   Partly Cloudy
12:30 PM 87.8 °F 93.8 °F 71.6 °F 58% 29.71 in 6.2 mi South 4.6 mph - N/A   Partly Cloudy
1:00 PM 89.6 °F 96.2 °F 71.6 °F 55% 29.68 in 6.2 mi NE 5.8 mph - N/A   Partly Cloudy
1:30 PM 89.6 °F 96.2 °F 71.6 °F 55% 29.65 in 6.2 mi East 6.9 mph - N/A   Scattered Clouds
2:00 PM 87.8 °F 93.8 °F 71.6 °F 58% 29.65 in 6.2 mi ESE 5.8 mph - N/A   Scattered Clouds
2:30 PM 87.8 °F 93.8 °F 71.6 °F 58% 29.65 in 6.2 mi South 8.1 mph - N/A   Scattered Clouds
3:00 PM 89.6 °F 98.2 °F 73.4 °F 59% 29.65 in 6.2 mi South 10.4 mph - N/A   Scattered Clouds
3:30 PM 87.8 °F 92.6 °F 69.8 °F 55% 29.65 in 5.6 mi SSW 13.8 mph - N/A Rain Rain
4:00 PM 80.6 °F 85.4 °F 73.4 °F 79% 29.68 in 5.6 mi WSW 23.0 mph - N/A Rain , Thunderstorm Thunderstorms and Rain
4:30 PM 78.8 °F - 73.4 °F 83% 29.68 in 5.6 mi SSW 13.8 mph - N/A Rain Light Rain
5:00 PM 78.8 °F - 73.4 °F 83% 29.68 in 5.6 mi SSW 9.2 mph - N/A   Mostly Cloudy
5:30 PM 80.6 °F 85.4 °F 73.4 °F 79% 29.68 in 5.6 mi SSW 4.6 mph - N/A   Mostly Cloudy
6:00 PM 80.6 °F 85.4 °F 73.4 °F 79% 29.68 in 5.6 mi SSW 9.2 mph - N/A   Mostly Cloudy
6:30 PM 80.6 °F 85.4 °F 73.4 °F 79% 29.71 in 5.6 mi SSW 8.1 mph - N/A   Mostly Cloudy
7:00 PM 80.6 °F 85.4 °F 73.4 °F 79% 29.71 in 5.6 mi SSW 8.1 mph - N/A   Scattered Clouds
7:30 PM 80.6 °F 85.4 °F 73.4 °F 79% 29.71 in 5.6 mi SSW 8.1 mph - N/A   Scattered Clouds
8:00 PM 80.6 °F 85.4 °F 73.4 °F 79% 29.71 in 5.6 mi SSW 5.8 mph - N/A   Scattered Clouds
8:30 PM 78.8 °F - 73.4 °F 83% 29.74 in 5.6 mi SSW 5.8 mph - N/A   Scattered Clouds
9:00 PM 78.8 °F - 73.4 °F 83% 29.74 in 5.6 mi South 8.1 mph - N/A   Scattered Clouds
9:30 PM 78.8 °F - 75.2 °F 89% 29.77 in 5.6 mi South 6.9 mph - N/A   Scattered Clouds
10:00 PM 80.6 °F 86.2 °F 75.2 °F 84% 29.77 in 5.6 mi SSW 8.1 mph - N/A   Scattered Clouds
10:30 PM 80.6 °F 86.2 °F 75.2 °F 84% 29.77 in 5.6 mi SSW 5.8 mph - N/A   Scattered Clouds
11:00 PM 80.6 °F 86.2 °F 75.2 °F 84% 29.77 in 5.6 mi SSW 6.9 mph - N/A   Scattered Clouds
11:30 PM 78.8 °F - 75.2 °F 89% 29.77 in 5.6 mi SSW 6.9 mph - N/A   Scattered Clouds